Terminal Aerodrome Forecast
Issued by NWS

Home | Current Version | Previous Version | Text Only | Print | Product List | Glossary On
Versions: 1 2 3 4 5 6 7 8 9 10 11 12 13 14 15 16 17 18 19 20 21 22 23 24 25 26 27 28 29 30 31 32 33 34 35 36 37 38 39 40 41 42
000
FTAK31 PANC 031730
TAFADU
TAF
PADU 031730Z 0318/0418 15011KT P6SM VCSH OVC035
     FM032100 10014G22KT P6SM VCSH BKN025 OVC180
     FM040000 11020G30KT P6SM VCSH BKN025 OVC150
     FM040600 12020G30KT 6SM -RA OVC018=

USA.gov is the U.S. government's official web portal to all federal, state and local government web resources and services.